IK5WWP Weather Reports


time (UTC)temp
C
wind
direction
speed
KPH
gust
KPH
rain 1hr
cm
rain 24hr
cm
rain mn
cm
humidity
%
barometer
mb
20260507215407 13 22 0.0 3.2 0.00 0.00 0.00 73 1012.3
20260507214507 13 22 0.0 3.2 0.00 0.00 0.00 73 1012.1
20260507213608 13 22 0.0 3.2 0.00 0.00 0.00 73 1012.3
20260507212708 13 22 0.0 3.2 0.00 0.00 0.00 73 1012.2
20260507211808 13 22 0.0 3.2 0.00 0.00 0.00 73 1012.0
20260507210907 13 22 0.0 3.2 0.00 0.00 0.00 73 1012.0
20260507210008 13 22 1.6 3.2 0.00 0.00 0.00 72 1012.2
20260507205107 13 0 0.0 0.0 0.00 0.00 0.00 74 1012.3
20260507204207 13 59 0.0 3.2 0.00 0.00 0.00 73 1012.1
20260507202407 13 40 0.0 3.2 0.00 0.00 0.00 72 1012.2
20260507201515 13 50 1.6 3.2 0.00 0.00 0.00 74 1012.1
20260507194807 15 23 0.0 3.2 0.00 0.00 0.00 63 1012.3
20260507193007 15 27 1.6 6.4 0.00 0.00 0.00 64 1012.1
20260507192119 15 28 0.0 3.2 0.00 0.00 0.00 65 1012.2
20260507191208 16 36 1.6 3.2 0.00 0.00 0.00 66 1012.1
20260507185407 16 36 1.6 3.2 0.00 0.00 0.00 66 1012.0
20260507183615 16 27 0.0 3.2 0.00 0.00 0.00 68 1011.7
20260507182707 16 23 1.6 3.2 0.00 0.00 0.00 70 1011.7
20260507181807 16 22 0.0 3.2 0.00 0.00 0.00 69 1011.8
20260507180908 16 22 0.0 3.2 0.00 0.00 0.00 69 1011.8
20260507180008 17 22 0.0 6.4 0.00 0.00 0.00 67 1011.7
20260507175108 18 23 1.6 3.2 0.00 0.00 0.00 63 1011.7
20260507173307 20 36 0.0 3.2 0.00 0.00 0.00 54 1011.8
20260507172408 20 42 1.6 3.2 0.00 0.00 0.00 53 1011.5
20260507170607 20 45 3.2 3.2 0.00 0.00 0.00 50 1011.2
20260507165708 20 41 1.6 6.4 0.00 0.00 0.00 49 1011.6
20260507164810 20 39 0.0 6.4 0.00 0.00 0.00 49 1011.5
20260507163908 20 52 1.6 6.4 0.00 0.00 0.00 51 1011.7
20260507163011 20 38 3.2 9.7 0.00 0.00 0.00 50 1011.7
20260507160308 20 52 3.2 6.4 0.00 0.00 0.00 49 1011.7
20260507155408 21 103 1.6 6.4 0.00 0.00 0.00 48 1011.7
20260507154509 21 178 4.8 6.4 0.00 0.00 0.00 49 1011.6
20260507153610 21 44 3.2 6.4 0.00 0.00 0.00 48 1011.8
20260507152709 21 76 1.6 6.4 0.00 0.00 0.00 48 1011.4
20260507151808 21 36 1.6 6.4 0.00 0.00 0.00 48 1011.6
20260507150910 21 39 3.2 6.4 0.00 0.00 0.00 48 1011.5
20260507150008 21 52 3.2 6.4 0.00 0.00 0.00 49 1011.9
20260507144208 21 49 3.2 9.7 0.00 0.00 0.00 48 1011.7
20260507143309 21 48 3.2 12.9 0.00 0.00 0.00 48 1012.0
20260507141508 21 36 3.2 9.7 0.00 0.00 0.00 48 1012.1
20260507135708 22 138 3.2 11.3 0.00 0.00 0.00 46 1012.2
20260507134808 23 156 3.2 14.5 0.00 0.00 0.00 45 1012.2
20260507133908 22 128 6.4 14.5 0.00 0.00 0.00 45 1012.0
20260507133010 22 34 3.2 11.3 0.00 0.00 0.00 46 1012.0
20260507131213 23 69 3.2 6.4 0.00 0.00 0.00 48 1012.3
20260507130324 23 66 1.6 6.4 0.00 0.00 0.00 49 1012.0
20260507125409 23 58 0.0 9.7 0.00 0.00 0.00 47 1012.1
20260507123623 23 120 3.2 6.4 0.00 0.00 0.00 51 1012.1
20260507120908 22 162 3.2 11.3 0.00 0.00 0.00 49 1012.4
20260507115109 23 134 3.2 6.4 0.00 0.00 0.00 48 1012.3
20260507113310 23 159 3.2 9.7 0.00 0.00 0.00 50 1012.7
20260507112408 22 146 1.6 6.4 0.00 0.00 0.00 52 1012.5
20260507111510 22 152 3.2 11.3 0.00 0.03 0.00 51 1012.6
20260507110608 22 84 3.2 11.3 0.00 0.03 0.00 54 1012.5
20260507105708 22 129 3.2 6.4 0.00 0.03 0.00 55 1012.6
20260507104809 22 140 1.6 9.7 0.00 0.03 0.00 56 1012.7
20260507103908 22 119 4.8 6.4 0.00 0.03 0.00 54 1012.9
20260507103008 22 69 3.2 6.4 0.00 0.03 0.00 58 1013.2
20260507102109 22 138 3.2 14.5 0.00 0.03 0.00 58 1013.2
20260507101209 20 141 6.4 14.5 0.00 0.03 0.00 59 1013.4
20260507100310 21 90 3.2 11.3 0.00 0.03 0.00 59 1013.3
20260507095409 20 142 4.8 9.7 0.00 0.03 0.00 61 1013.0
20260507094508 20 100 1.6 6.4 0.00 0.03 0.00 59 1013.2
20260507092711 20 158 1.6 6.4 0.00 0.03 0.00 66 1013.2
20260507091810 20 165 1.6 6.4 0.00 0.03 0.00 65 1013.4
20260507090910 20 128 1.6 3.2 0.00 0.03 0.00 64 1013.5
20260507090011 19 108 1.6 3.2 0.00 0.03 0.00 66 1013.5
20260507085109 18 172 0.0 6.4 0.00 0.03 0.00 69 1013.6
20260507084209 20 166 1.6 3.2 0.00 0.03 0.00 68 1013.6
20260507082409 16 94 3.2 3.2 0.00 0.03 0.00 75 1013.5
20260507075711 17 167 3.2 3.2 0.00 0.03 0.00 75 1013.5
20260507074810 16 164 1.6 3.2 0.00 0.03 0.00 79 1013.6
20260507073009 15 127 0.0 6.4 0.00 0.03 0.00 81 1013.4
20260507072124 15 52 1.6 3.2 0.00 0.03 0.00 81 1013.4
20260507065410 13 23 0.0 3.2 0.00 0.03 0.00 84 1013.3
20260507064509 13 23 0.0 3.2 0.00 0.03 0.00 84 1013.4
20260507063609 13 0 0.0 0.0 0.00 0.03 0.00 83 1013.0
20260507062709 13 0 0.0 0.0 0.00 0.03 0.00 83 1013.1
20260507061809 13 23 0.0 3.2 0.00 0.05 0.00 83 1013.0
20260507060909 12 0 0.0 0.0 0.00 0.05 0.00 83 1012.9
20260507060009 12 0 0.0 0.0 0.00 0.05 0.00 85 1012.8
20260507055110 12 0 0.0 0.0 0.00 0.13 0.00 86 1012.6
20260507054209 12 0 0.0 0.0 0.00 0.13 0.00 87 1012.7
20260507053309 11 0 0.0 0.0 0.00 0.28 0.00 88 1012.7
20260507052410 11 0 0.0 0.0 0.00 0.28 0.00 88 1012.6
20260507051510 11 0 0.0 0.0 0.00 0.99 0.00 89 1012.6
20260507050610 11 1 0.0 3.2 0.00 0.99 0.00 89 1012.5
20260507045709 11 0 0.0 0.0 0.00 1.78 0.00 89 1012.4
20260507044809 10 0 0.0 0.0 0.00 1.78 0.00 89 1012.3
20260507043909 10 0 0.0 0.0 0.00 4.11 0.00 89 1012.1
20260507043010 10 0 0.0 0.0 0.00 4.11 0.00 89 1012.1
20260507042110 10 0 0.0 0.0 0.00 4.11 0.00 89 1012.2
20260507040311 10 1 0.0 3.2 0.00 4.11 0.00 89 1012.2
20260507035409 10 2 0.0 3.2 0.00 4.11 0.00 89 1012.1
20260507033610 10 0 0.0 0.0 0.00 6.65 0.00 89 1012.1
20260507032710 11 1 0.0 3.2 0.00 6.65 0.00 89 1012.1
20260507030011 11 4 0.0 3.2 0.00 6.65 0.00 89 1012.0
20260507025109 11 1 1.6 3.2 0.00 6.65 0.00 89 1011.9
20260507024210 11 1 0.0 3.2 0.00 6.65 0.00 89 1012.0
20260507023310 11 1 0.0 3.2 0.00 6.65 0.00 89 1012.1
20260507022409 11 0 0.0 0.0 0.00 6.65 0.00 89 1012.0
20260507021511 12 0 0.0 0.0 0.00 6.68 0.00 89 1012.1
20260507020610 12 0 0.0 0.0 0.00 6.68 0.00 89 1012.1
20260507015710 12 1 0.0 3.2 0.00 6.68 0.00 88 1012.3
20260507014810 12 1 0.0 3.2 0.00 6.68 0.00 88 1012.1
20260507013910 12 22 0.0 3.2 0.00 6.76 0.00 89 1012.0
20260507013010 12 0 0.0 0.0 0.00 6.76 0.00 89 1011.9
20260507012111 12 0 0.0 0.0 0.00 6.76 0.00 89 1011.9
20260507010310 12 0 0.0 0.0 0.00 7.90 0.00 89 1012.0
20260507005410 12 0 0.0 0.0 0.00 7.90 0.00 89 1012.0
20260507004510 12 0 0.0 0.0 0.00 7.90 0.00 89 1012.1
20260507000011 12 0 0.0 0.0 0.00 8.23 0.00 88 1012.0
20260506235110 12 1 0.0 3.2 0.00 9.50 0.00 88 1012.0
20260506234210 12 10 1.6 3.2 0.00 9.50 0.00 88 1012.1
20260506232410 12 0 0.0 0.0 0.00 9.50 0.00 88 1012.1
20260506231510 12 1 0.0 3.2 0.00 9.50 0.00 88 1011.9
20260506230613 12 1 0.0 3.2 0.00 9.50 0.00 88 1012.0
20260506225711 13 0 0.0 0.0 0.00 9.50 0.00 88 1012.3
20260506223910 13 1 0.0 3.2 0.00 9.50 0.00 87 1012.0
20260506223010 13 1 0.0 3.2 0.00 9.50 0.00 87 1011.8
20260506222113 13 2 0.0 3.2 0.00 9.50 0.00 87 1011.8